DECAYED

CZ-6A DEB, 64631 (Decayed)

Orbit data source: Space-Track

CZ-6A DEB, 64631 was space debris in LEO originally from a launch on Tue, 06 Aug 2024 UTC launched from the Taiyaun Space Center, China (TSC). Debris objects in space refer to the collection of defunct objects orbiting the Earth. Examples of debris include non-operational satellites, rocket bodies, and fragments generated from explosions, collisions, or faulty payload assembly.

Not visible in the next 10 days
Identifier
64631, 2024-140ADV
Orbit
Decayed
Country
Flag of CNCN / PRC
Related business
Manufacturer
SAST
Mission
Decayed spacecraft
Bus & Motor
Unknown
Mass
Unknown
Launch date (UTC)
2024-08-06 (2 years ago)
Launch vehicle
Unknown
Launch site
Taiyaun Space Center, China (TSC)
Object type
Payload
Rocket body
Debris
Shape & HBR
Unknown shape, 0.1 m
Radar Cross Section
Medium (>0.1 m² and <1 m²)

Expand to show TLE details & history
Last TLE update: 6 months ago

TLE from 6 months ago
0 CZ-6A DEB
1 64631U 24140ADV 26004.24911844  .02694062  00000-0  17836-1 0  9991
2 64631  89.0154 290.3472 0022505  85.0210 275.3632 15.72002097 71195
Epoch: 2026-01-04T05:58Z
TLE epoch observation values (Epoch: 2026-01-04T05:58:43.833Z)
Latitude
-0.00001°
Longitude
96.80122°
Altitude
355.061 km
Speed
7.697 km/s
True Right ascension
19h 21m 23s
True Declination
0° 00' 00"
Sunlit
Object was in daylight at epoch
Visualization orbit readout
Latitude
Unknown
Longitude
Unknown
Altitude
Unknown
Speed
Unknown
Apparent Right ascension
Unknown
Apparent Declination
Unknown
Sunlit
N/A
Visualization observer readout
Local Sidereal Time
07:21:25
Azimuth
Unknown
Elevation
Unknown
Doppler factor
Unknown
Orbital elements
Apogee altitude
365.054 km
Perigee altitude
334.771 km
Semi-major axis
6,728.049 km
Eccentricity
0.00225
Inclination
89.0154°
RAAN
290.3472°
Arg. of periapsis
85.021°
True anomaly
275.10637°
Mean anomaly
275.3632°
Eccentric anomaly
275.23479°
Mean motion
3.93287 °/min
Orbital period
91.54 mins
BSTAR
0.017836
Loading maneuver chart data...
Computing Atmospheric mass density...
Loading historical data...
Loading historical data...
Loading historical data...
Loading historical data...
Loading historical data...
Loading historical data...
Loading historical data...

Documentation

Showing up to 5 results
|